Погода Большой Шантар

Погода Большой Шантар : погода сейчас, прогноз погоды и архив. Всё, что Вы хотите узнать о погоде Большой Шантар!

Хотите узнать прогноз погоды Большой Шантар? Тогда Вам сюда: Погода Большой Шантар

Поиск расширенной информации на нашем сайте:

Другие новости

Новости СМИ2

Главная страница сайта

Новости сайта

02.10.2013

Напоминаем, что на нашем новом сайте вы можете получить высокодетализированные прогнозы погоды по пунктам России, СНГ и мира (включающие важные для авиации метеовеличины, такие как направление и скорость ветра, видимость, явления погоды, количество и форма облачности, нижняя и верхняя граница облачности), а также ознакомиться с разнообразными материалами по авиационной метеорологии и подборкой полезных ссылок на эту тему.

Сайт Метеоцентр.Азия посвящён разработке технологий оптимизации авиаметеорологического обслуживания, включая проектирование и перспективное создание нескольких автоматизированных авиаметеорологических систем:
- система выпуска высокодетальных прогностических карт явлений погоды для нижнего воздушного пространства по России и ближнему зарубежью;
- система верификации прогнозов TAF (выпускаемых синоптиками официальных АМСГ РФ и ближнего зарубежья) и AUTOTAF (выпускаемых сайтом Метеоцентр.Азия) - выявление ошибок, онлайн-сопоставление с фактической погодой METAR, автоматическое внесение коррективов в прогнозы при резком отклонении фактической погоды от прогноза, подсчёт оправдываемости прогнозов по элементам и в целом;
- система обработки, анализа и отображения авиаметеорологической информации для применения провайдерами метеорологической информации.

Рекомендуем: мобильные электрокардиографы

Погода Большой Шантар - сегодня

Время (UTC), дата Ветер
(°,м/с) 
Видим.   Явления Облачность Т
(°С)
Тd
(°С)
f(%) Тe
(°С)
Pmin
(гПа)
dP
(гПа)
Po
(мм)
O2
(г/м3)
Тmin Tmax R s Состояние
почвы
09 15.01.17 210 (ЮЗ) 20000 м    4/0 верхняя 
[Ci fib]
-18.5 -20.8 82 -21  1031.8  0.2  773  336    -10  0.0     
12 15.01.17 060 (СВ) 20000 м    6/0 верхняя 
[Ci fib]
-22.5 -24.3 85 -27  1031.5  -0.3  773  341           
15 15.01.17 060 (СВ) 20000 м    8/0 верхняя 
[Cs]
-21.5 -23.5 84 -24  1030.8  -0.7  772  339           
18 15.01.17 080 (В) 20000 м    10/0 верхняя 
[Cs]
-22.6 -24.8 82 -26  1030.8  0.1  772  341           
21 15.01.17 060 (СВ) 20000 м    3/0 верхняя 
[Ci fib]
-25.6 -27.9 81 -29  1030.3  -0.6  772  345  -27.4      40  неравномерный
сухой снег
100% 
00 16.01.17 030 (СВ) 20000 м    4/0 верхняя 
[Cc]
-27.3 -30 78 -31  1030.9  0.6  772  348  -28.3         
03 16.01.17 060 (СВ) 20000 м    3/0 верхняя 
[Ci fib]
-25.6 -28.1 80 -29  1031  0.7  772  345           
06 16.01.17 тихо ()   20000 м    3/0 верхняя 
[Ci fib]
-14.7 -16 90 -15  1029.6  771  330           
09 16.01.17 040 (СВ) 20000 м    ясно 
-23.2 -25.4 82 -26  1030.3  0.7  772  342    -14.3       
12 16.01.17 030 (СВ) 20000 м    ясно 
-25.6 -28.2 79 -31  1030.5  0.2  772  345           
15 16.01.17 020 (С) 20000 м    ясно 
-28.4 -31.4 75 -34  1030.1  -0.4  772  349           
18 16.01.17 020 (С) 20000 м    ясно 
-29.1 -32.1 75 -35  1030.2  0.1  772  350           
21 16.01.17 020 (С) 20000 м    ясно 
-29.1 -31.9 77 -33  1030.3  772  350  -31      40  неравномерный
сухой снег
100% 
00 17.01.17 030 (СВ) 20000 м    5/3 600 м верхняя 
[Sc|Ci fib]
-27.6 -30.3 78 -33  1030.9  0.6  772  348           
03 17.01.17 тихо ()   20000 м    8/3 600 м верхняя 
[Sc|Cs]
-18.7 -20.6 85 -19  1030.5  -0.4  772  336           
06 17.01.17 250 (З) 20000 м    10/0 верхняя 
[Cs]
-17.8 -19.5 87 -18  1029.8  -0.6  771  334           
09 17.01.17 020 (С) 20000 м  слаб. снег  10/10 600 м 
[Sc]
-21.4 -23.6 82 -22  1030.3  -0.6  772  339    -16.5  0.0     
12 17.01.17 040 (СВ) 20000 м  {снег}  10/6 600 м верхняя 
[Sc|Ci fib]
-22.7 -24.9 82 -23  1030.2  0.1  772  341           
15 17.01.17 020 (С) 20000 м    8/3 600 м верхняя 
[Sc|Cs]
-25.2 -27.7 80 -28  1029.7  -0.5  771  344           
18 17.01.17 030 (СВ) 20000 м    8/3 600 м верхняя 
[Sc|Cs]
-27.4 -30.1 78 -31  1029.4  -0.3  771  347           
21 17.01.17 050 (СВ) 20000 м  слаб. снег  8/6 600 м верхняя 
[Sc|Ci fib]
-26.5 -29.2 78 -30  1028.8  -0.6  771  346  -28.3    0.0  34  неравномерный
сухой снег
100% 
00 18.01.17 020 (С) 20000 м  {снег}  10/3 600 м верхняя 
[Sc|Cs]
-27.9 -30.7 77 -31  1028.7  -0.2  771  348  -28.9         
03 18.01.17 тихо ()   20000 м    6/0 верхняя 
[Cs]
-20.4 -22.4 84 -20  1027.4  -1.2  770  337           
06 18.01.17 200 (Ю) 20000 м    8/3 600 м верхняя 
[Sc|Ci]
-20.3 -22.3 84 -21  1026.5  -1  769  336           
09 18.01.17 060 (СВ) 20000 м    4/1 600 м верхняя 
[Sc|Cs]
-25.1 -27.7 79 -26  1026.8  0.3  769  343    -16.7  0.0     
Время (UTC), дата Ветер
(°,м/с) 
Видим.   Явления Облачность Т
(°С)
Тd
(°С)
f(%) Тe
(°С)
Pmin
(гПа)
dP
(гПа)
Po
(мм)
O2
(г/м3)
Тmin Tmax R s Состояние
почвы

Для получения пояснительной информации подведите курсор к названию столбца.

ПОГОДА Большой Шантар - архив

Всё, что Вы хотите узнать о погоде Большой Шантар - удобно и подробно!

Выберите нужную дату (начиная с 1 января 2015* года) и нажмите кнопку "Найти".
Будут отображены архивные сводки погоды по пункту Большой Шантар, начиная с указанной даты.


Отображать данные в формате CSV (для использования в таблицах Excel)


Внимание! Наш архив погоды предназначен исключительно для личного некоммерческого использования в познавательных целях. Если Вам необходимы официальные справки о состоянии погоды (для производственных, юридических, коммерческих и т.п. целей), обращайтесь в органы Росгидромета.

*Примечание: данная дата относится к архиву по метеостанциям СССР (Россия, СНГ, Балтия).
Архив по метеостанциям Зарубежной Европы и Азии (кроме Китая) хранится 10 дней, по другим регионам земного шара (Китай, Африка, Америка, Австралия, Океания) - 1 день.

Большой Шантар - район местоположения метеостанции


Название, широта, долгота, высота метеостанции:
Большой Шантар 54.8°ш. 137.5°д. 21 м над ур. моря [Российская Федерация]

Дополнительная информация

В oтличие oт бoльшинства пoгoдных сайтoв мы публикуем пoдрoбную метеoинфoрмацию в детальнoм прoфессиoнальнoм фoрмате.

Характеристики температуры и влажнoсти вoздуха измеряются на высoте 2 м в тени вдали oт зданий и деревьев.
Скoрoсть ветра измеряется на высoте 10 м (на урoвне рoста челoвека скoрoсть ветра ниже в 1.5-2 раза). Если метеoстанция нахoдится в гoрoде или в лесу, тo скoрoсть ветра занижена на 2-4 м/с пo сравнению с oткрытым местoм. Скoрoсть ветра над акватoриями крупных рек и oзёр, а также на вершинах хoлмoв на 2-5 м/с выше, чем в oбычных услoвиях.
Атмoсфернoе давление в разных тoчках местнoсти мoжет значительнo oтличаться oт давления на метеoстанции, в зависимoсти oт услoвий рельефа (при пoдъёме на 10 м давление пoнижается примернo на 1 мм рт.ст.).